| time (UTC) | temp F | wind direction | speed knots | gust knots | rain 1hr in | rain 24hr in | rain mn in | humidity % | barometer mb |
| 20260504183826 | 75 | 181 | 0.0 | 0.0 | 0.00 | 0.00 | 0.00 | 68 | 1013.8 |
| 20260504183542 | 74 | 211 | 0.0 | 0.0 | 0.00 | 0.00 | 0.00 | 69 | 1012.3 |
| 20260504183342 | 75 | 208 | 0.0 | 0.0 | 0.00 | 0.00 | 0.00 | 69 | 1013.9 |
| 20260504183003 | 74 | 166 | 0.0 | 0.0 | 0.00 | 0.00 | 0.00 | 69 | 1012.3 |
| 20260504182818 | 74 | 198 | 0.0 | 0.0 | 0.00 | 0.00 | 0.00 | 70 | 1013.8 |
| 20260504182557 | 74 | 237 | 0.0 | 0.0 | 0.00 | 0.00 | 0.00 | 69 | 1012.5 |
| 20260504182314 | 74 | 211 | 0.0 | 0.0 | 0.00 | 0.00 | 0.00 | 69 | 1013.9 |
| 20260504182053 | 74 | 205 | 0.0 | 0.0 | 0.00 | 0.00 | 0.00 | 69 | 1012.5 |
| 20260504181830 | 74 | 172 | 0.0 | 0.0 | 0.00 | 0.00 | 0.00 | 71 | 1013.8 |
| 20260504181543 | 73 | 145 | 0.0 | 0.0 | 0.00 | 0.00 | 0.00 | 70 | 1012.4 |
| 20260504181325 | 74 | 209 | 0.0 | 0.0 | 0.00 | 0.00 | 0.00 | 71 | 1014.1 |
| 20260504181037 | 73 | 215 | 0.0 | 0.0 | 0.00 | 0.00 | 0.00 | 71 | 1012.7 |
| 20260504180819 | 73 | 216 | 0.0 | 0.0 | 0.00 | 0.00 | 0.00 | 71 | 1014.2 |
| 20260504180530 | 73 | 226 | 0.0 | 0.0 | 0.00 | 0.00 | 0.00 | 71 | 1012.8 |
| 20260504180317 | 73 | 210 | 0.0 | 0.0 | 0.00 | 0.00 | 0.00 | 70 | 1014.4 |
| 20260504180016 | 73 | 240 | 0.0 | 0.0 | 0.00 | 0.00 | 0.00 | 72 | 1012.8 |
| 20260504175833 | 73 | 241 | 0.0 | 0.0 | 0.00 | 0.00 | 0.00 | 72 | 1014.4 |
| 20260504175507 | 72 | 241 | 0.0 | 0.0 | 0.00 | 0.00 | 0.00 | 72 | 1012.8 |
| 20260504175344 | 72 | 229 | 0.0 | 0.0 | 0.00 | 0.00 | 0.00 | 72 | 1014.4 |
| 20260504175039 | 72 | 189 | 0.0 | 0.0 | 0.00 | 0.00 | 0.00 | 71 | 1012.9 |
| 20260504174820 | 72 | 215 | 0.0 | 15.6 | 0.00 | 0.00 | 0.00 | 72 | 1014.5 |
| 20260504174533 | 71 | 204 | 0.0 | 15.6 | 0.00 | 0.00 | 0.00 | 72 | 1013.0 |
| 20260504174317 | 72 | 186 | 0.0 | 16.5 | 0.00 | 0.00 | 0.00 | 73 | 1014.7 |
| 20260504174025 | 71 | 220 | 7.0 | 18.2 | 0.00 | 0.00 | 0.00 | 72 | 1013.2 |
| 20260504173833 | 71 | 208 | 10.4 | 18.2 | 0.00 | 0.00 | 0.00 | 73 | 1014.6 |
| 20260504173509 | 71 | 211 | 9.6 | 19.1 | 0.00 | 0.00 | 0.00 | 73 | 1013.1 |
| 20260504173329 | 71 | 226 | 10.4 | 19.1 | 0.00 | 0.00 | 0.00 | 73 | 1014.6 |
| 20260504173005 | 70 | 220 | 9.6 | 19.1 | 0.00 | 0.00 | 0.00 | 73 | 1013.1 |
| 20260504172825 | 71 | 214 | 11.3 | 19.1 | 0.00 | 0.00 | 0.00 | 73 | 1014.6 |
| 20260504172559 | 70 | 223 | 11.3 | 19.1 | 0.00 | 0.00 | 0.00 | 72 | 1013.2 |
| 20260504172322 | 71 | 197 | 12.2 | 19.1 | 0.00 | 0.00 | 0.00 | 73 | 1014.8 |
| 20260504172047 | 70 | 189 | 10.4 | 19.1 | 0.00 | 0.00 | 0.00 | 73 | 1013.3 |
| 20260504171818 | 71 | 191 | 12.2 | 19.1 | 0.00 | 0.00 | 0.00 | 73 | 1014.8 |
| 20260504171539 | 70 | 216 | 9.6 | 17.4 | 0.00 | 0.00 | 0.00 | 73 | 1013.4 |
| 20260504171314 | 71 | 207 | 10.4 | 17.4 | 0.00 | 0.00 | 0.00 | 73 | 1014.9 |
| 20260504171021 | 70 | 199 | 10.4 | 19.1 | 0.00 | 0.00 | 0.00 | 73 | 1013.5 |
| 20260504170830 | 71 | 195 | 10.4 | 20.0 | 0.00 | 0.00 | 0.00 | 73 | 1015.0 |
| 20260504170509 | 70 | 195 | 11.3 | 20.0 | 0.00 | 0.00 | 0.00 | 73 | 1013.4 |
| 20260504170326 | 71 | 185 | 13.0 | 20.0 | 0.00 | 0.00 | 0.00 | 73 | 1014.9 |
| 20260504170107 | 70 | 188 | 13.9 | 20.9 | 0.00 | 0.00 | 0.00 | 73 | 1013.5 |
| 20260504160338 | 69 | 191 | 14.8 | 24.3 | 0.00 | 0.00 | 0.00 | 73 | 1015.0 |
| 20260504151039 | 67 | 207 | 9.6 | 19.1 | 0.00 | 0.00 | 0.00 | 75 | 1014.2 |
| 20260504150826 | 68 | 206 | 12.2 | 19.1 | 0.00 | 0.00 | 0.00 | 76 | 1015.6 |
| 20260504150533 | 67 | 168 | 11.3 | 19.1 | 0.00 | 0.00 | 0.00 | 76 | 1014.1 |
| 20260504150323 | 67 | 151 | 13.0 | 19.1 | 0.00 | 0.00 | 0.00 | 75 | 1015.6 |
| 20260504141008 | 65 | 177 | 9.6 | 20.0 | 0.00 | 0.00 | 0.00 | 79 | 1014.3 |
| 20260504140818 | 65 | 204 | 11.3 | 20.0 | 0.00 | 0.00 | 0.00 | 79 | 1015.6 |
| 20260504140603 | 65 | 218 | 12.2 | 19.1 | 0.00 | 0.00 | 0.00 | 79 | 1014.2 |
| 20260504140315 | 65 | 222 | 11.3 | 19.1 | 0.00 | 0.00 | 0.00 | 79 | 1015.5 |
| 20260504130501 | 62 | 208 | 9.6 | 16.5 | 0.00 | 0.00 | 0.00 | 82 | 1014.0 |
| 20260504130320 | 62 | 179 | 9.6 | 16.5 | 0.00 | 0.00 | 0.00 | 82 | 1015.3 |
| 20260504110547 | 59 | 170 | 5.2 | 8.7 | 0.00 | 0.00 | 0.00 | 82 | 1013.8 |
| 20260504110322 | 59 | 191 | 4.3 | 8.7 | 0.00 | 0.00 | 0.00 | 82 | 1015.0 |
| 20260504100542 | 59 | 186 | 2.6 | 7.0 | 0.00 | 0.00 | 0.00 | 80 | 1014.5 |
| 20260504100332 | 60 | 201 | 3.5 | 7.0 | 0.00 | 0.00 | 0.00 | 80 | 1015.8 |
| 20260504081818 | 62 | 183 | 4.3 | 7.8 | 0.00 | 0.00 | 0.00 | 74 | 1016.1 |
| 20260504081600 | 61 | 174 | 3.5 | 8.7 | 0.00 | 0.00 | 0.00 | 74 | 1014.8 |
| 20260504081500 | 61 | 174 | 4.3 | 8.7 | 0.00 | 0.00 | 0.00 | 74 | 1014.8 |
| 20260504081314 | 62 | 190 | 4.3 | 8.7 | 0.00 | 0.00 | 0.00 | 74 | 1016.1 |
| 20260504081055 | 61 | 195 | 4.3 | 8.7 | 0.00 | 0.00 | 0.00 | 74 | 1014.8 |
| 20260504080850 | 62 | 210 | 5.2 | 8.7 | 0.00 | 0.00 | 0.00 | 74 | 1016.0 |
| 20260504080524 | 61 | 195 | 3.5 | 9.6 | 0.00 | 0.00 | 0.00 | 74 | 1014.8 |
| 20260504080325 | 62 | 195 | 5.2 | 9.6 | 0.00 | 0.00 | 0.00 | 74 | 1016.1 |
| 20260504070331 | 62 | 173 | 7.0 | 13.9 | 0.00 | 0.00 | 0.00 | 70 | 1016.8 |
| 20260504050526 | 61 | 191 | 3.5 | 5.2 | 0.00 | 0.00 | 0.00 | 66 | 1017.1 |
| 20260504050326 | 62 | 191 | 3.5 | 5.2 | 0.00 | 0.00 | 0.00 | 66 | 1018.2 |
| 20260504050123 | 61 | 191 | 2.6 | 4.3 | 0.00 | 0.00 | 0.00 | 66 | 1017.1 |
| 20260504045832 | 62 | 191 | 2.6 | 4.3 | 0.00 | 0.00 | 0.00 | 66 | 1018.3 |
| 20260504045540 | 61 | 191 | 1.7 | 4.3 | 0.00 | 0.00 | 0.00 | 66 | 1017.1 |
| 20260504045328 | 62 | 191 | 2.6 | 4.3 | 0.00 | 0.00 | 0.00 | 66 | 1018.3 |
| 20260504045034 | 61 | 191 | 2.6 | 4.3 | 0.00 | 0.00 | 0.00 | 66 | 1017.1 |
| 20260504044825 | 62 | 191 | 3.5 | 4.3 | 0.00 | 0.00 | 0.00 | 66 | 1018.2 |
| 20260504044532 | 61 | 191 | 2.6 | 4.3 | 0.00 | 0.00 | 0.00 | 66 | 1017.1 |
| 20260504044321 | 62 | 191 | 2.6 | 3.5 | 0.00 | 0.00 | 0.00 | 66 | 1018.3 |
| 20260504044016 | 61 | 191 | 1.7 | 3.5 | 0.00 | 0.00 | 0.00 | 66 | 1017.2 |
| 20260504043818 | 62 | 191 | 2.6 | 3.5 | 0.00 | 0.00 | 0.00 | 66 | 1018.4 |
| 20260504043602 | 61 | 191 | 1.7 | 3.5 | 0.00 | 0.00 | 0.00 | 66 | 1017.2 |
| 20260504043315 | 62 | 191 | 2.6 | 3.5 | 0.00 | 0.00 | 0.00 | 66 | 1018.3 |
| 20260504043103 | 61 | 191 | 1.7 | 3.5 | 0.00 | 0.00 | 0.00 | 66 | 1017.1 |
| 20260504042830 | 62 | 191 | 1.7 | 3.5 | 0.00 | 0.00 | 0.00 | 66 | 1018.4 |
| 20260504042551 | 61 | 191 | 1.7 | 3.5 | 0.00 | 0.00 | 0.00 | 66 | 1017.2 |
| 20260504042327 | 62 | 191 | 1.7 | 3.5 | 0.00 | 0.00 | 0.00 | 66 | 1018.5 |
| 20260504042044 | 61 | 191 | 1.7 | 3.5 | 0.00 | 0.00 | 0.00 | 66 | 1017.2 |
| 20260504041824 | 62 | 191 | 1.7 | 3.5 | 0.00 | 0.00 | 0.00 | 66 | 1018.5 |
| 20260504041537 | 61 | 191 | 1.7 | 3.5 | 0.00 | 0.00 | 0.00 | 65 | 1017.4 |
| 20260504041320 | 62 | 191 | 1.7 | 3.5 | 0.00 | 0.00 | 0.00 | 65 | 1018.6 |
| 20260504041033 | 61 | 191 | 1.7 | 3.5 | 0.00 | 0.00 | 0.00 | 65 | 1017.4 |
| 20260504040851 | 62 | 191 | 1.7 | 3.5 | 0.00 | 0.00 | 0.00 | 65 | 1018.6 |
| 20260504040558 | 61 | 191 | 1.7 | 3.5 | 0.00 | 0.00 | 0.00 | 65 | 1017.5 |
| 20260504040326 | 62 | 191 | 2.6 | 4.3 | 0.00 | 0.00 | 0.00 | 66 | 1018.7 |
| 20260504040051 | 61 | 191 | 1.7 | 4.3 | 0.00 | 0.00 | 0.00 | 66 | 1017.6 |
| 20260504035822 | 62 | 191 | 2.6 | 4.3 | 0.00 | 0.00 | 0.00 | 66 | 1018.8 |
| 20260504035543 | 61 | 191 | 2.6 | 4.3 | 0.00 | 0.00 | 0.00 | 66 | 1017.7 |
| 20260504035318 | 62 | 191 | 1.7 | 3.5 | 0.00 | 0.00 | 0.00 | 66 | 1018.8 |
| 20260504035037 | 61 | 191 | 1.7 | 3.5 | 0.00 | 0.00 | 0.00 | 65 | 1017.6 |
| 20260504034836 | 62 | 191 | 1.7 | 4.3 | 0.00 | 0.00 | 0.00 | 65 | 1018.7 |
| 20260504034616 | 62 | 191 | 1.7 | 4.3 | 0.00 | 0.00 | 0.00 | 65 | 1017.4 |
| 20260504034332 | 62 | 191 | 2.6 | 4.3 | 0.00 | 0.00 | 0.00 | 65 | 1018.6 |
| 20260504034054 | 62 | 191 | 1.7 | 4.3 | 0.00 | 0.00 | 0.00 | 65 | 1017.4 |
| 20260504033827 | 62 | 191 | 1.7 | 3.5 | 0.00 | 0.00 | 0.00 | 65 | 1018.5 |
| 20260504033546 | 62 | 191 | 1.7 | 3.5 | 0.00 | 0.00 | 0.00 | 65 | 1017.2 |
| 20260504033323 | 62 | 191 | 2.6 | 4.3 | 0.00 | 0.00 | 0.00 | 65 | 1018.4 |
| 20260504033050 | 62 | 191 | 2.6 | 4.3 | 0.00 | 0.00 | 0.00 | 65 | 1017.3 |
| 20260504032838 | 63 | 191 | 2.6 | 4.3 | 0.00 | 0.00 | 0.00 | 65 | 1018.5 |
| 20260504032604 | 62 | 191 | 2.6 | 5.2 | 0.00 | 0.00 | 0.00 | 65 | 1017.3 |
| 20260504032333 | 63 | 191 | 3.5 | 5.2 | 0.00 | 0.00 | 0.00 | 64 | 1018.5 |
| 20260504032035 | 62 | 178 | 2.6 | 5.2 | 0.00 | 0.00 | 0.00 | 64 | 1017.4 |
| 20260504031829 | 63 | 189 | 3.5 | 5.2 | 0.00 | 0.00 | 0.00 | 64 | 1018.5 |
| 20260504031527 | 62 | 185 | 2.6 | 6.1 | 0.00 | 0.00 | 0.00 | 64 | 1017.1 |
| 20260504031324 | 63 | 187 | 3.5 | 6.1 | 0.00 | 0.00 | 0.00 | 64 | 1018.3 |
| 20260504031012 | 63 | 158 | 3.5 | 6.1 | 0.00 | 0.00 | 0.00 | 64 | 1017.2 |
| 20260504030841 | 63 | 166 | 4.3 | 6.1 | 0.00 | 0.00 | 0.00 | 64 | 1018.3 |
| 20260504030542 | 63 | 189 | 3.5 | 6.1 | 0.00 | 0.00 | 0.00 | 64 | 1017.2 |
| 20260504030316 | 63 | 180 | 3.5 | 6.1 | 0.00 | 0.00 | 0.00 | 64 | 1018.3 |
| 20260504030034 | 63 | 184 | 3.5 | 6.1 | 0.00 | 0.00 | 0.00 | 64 | 1017.2 |
| 20260504025833 | 63 | 180 | 4.3 | 6.1 | 0.00 | 0.00 | 0.00 | 64 | 1018.5 |
| 20260504025528 | 63 | 200 | 2.6 | 5.2 | 0.00 | 0.00 | 0.00 | 64 | 1017.3 |
| 20260504025329 | 63 | 181 | 3.5 | 5.2 | 0.00 | 0.00 | 0.00 | 64 | 1018.5 |
| 20260504025025 | 63 | 181 | 1.7 | 4.3 | 0.00 | 0.00 | 0.00 | 64 | 1017.3 |
| 20260504024825 | 64 | 181 | 2.6 | 4.3 | 0.00 | 0.00 | 0.00 | 63 | 1018.4 |
| 20260504024526 | 63 | 181 | 1.7 | 4.3 | 0.00 | 0.00 | 0.00 | 63 | 1017.3 |
| 20260504024321 | 64 | 181 | 2.6 | 3.5 | 0.00 | 0.00 | 0.00 | 63 | 1018.5 |
| 20260504024005 | 64 | 181 | 1.7 | 3.5 | 0.00 | 0.00 | 0.00 | 62 | 1017.4 |
| 20260504023820 | 64 | 181 | 2.6 | 3.5 | 0.00 | 0.00 | 0.00 | 62 | 1018.5 |
| 20260504023556 | 64 | 181 | 1.7 | 3.5 | 0.00 | 0.00 | 0.00 | 62 | 1017.4 |
| 20260504023316 | 65 | 181 | 2.6 | 3.5 | 0.00 | 0.00 | 0.00 | 61 | 1018.5 |
| 20260504023050 | 64 | 181 | 1.7 | 3.5 | 0.00 | 0.00 | 0.00 | 61 | 1017.3 |
| 20260504022832 | 65 | 181 | 2.6 | 3.5 | 0.00 | 0.00 | 0.00 | 61 | 1018.5 |
| 20260504022544 | 64 | 181 | 1.7 | 3.5 | 0.00 | 0.00 | 0.00 | 61 | 1017.3 |
| 20260504022329 | 65 | 181 | 1.7 | 3.5 | 0.00 | 0.00 | 0.00 | 60 | 1018.5 |
| 20260504022037 | 65 | 181 | 1.7 | 3.5 | 0.00 | 0.00 | 0.00 | 60 | 1017.3 |
| 20260504021825 | 65 | 181 | 2.6 | 3.5 | 0.00 | 0.00 | 0.00 | 60 | 1018.4 |
| 20260504021529 | 65 | 181 | 1.7 | 3.5 | 0.00 | 0.00 | 0.00 | 60 | 1017.2 |
| 20260504021322 | 66 | 181 | 2.6 | 3.5 | 0.00 | 0.00 | 0.00 | 59 | 1018.5 |
| 20260504021020 | 65 | 181 | 1.7 | 3.5 | 0.00 | 0.00 | 0.00 | 59 | 1017.3 |
| 20260504020818 | 66 | 181 | 2.6 | 3.5 | 0.00 | 0.00 | 0.00 | 59 | 1018.5 |
| 20260504020514 | 65 | 181 | 1.7 | 3.5 | 0.00 | 0.00 | 0.00 | 59 | 1017.3 |
| 20260504020316 | 66 | 181 | 2.6 | 3.5 | 0.00 | 0.00 | 0.00 | 59 | 1018.4 |
| 20260504020104 | 66 | 181 | 2.6 | 3.5 | 0.00 | 0.00 | 0.00 | 59 | 1017.2 |
| 20260504015832 | 66 | 182 | 2.6 | 3.5 | 0.00 | 0.00 | 0.00 | 58 | 1018.4 |
| 20260504015556 | 66 | 181 | 1.7 | 3.5 | 0.00 | 0.00 | 0.00 | 58 | 1017.3 |
| 20260504015328 | 67 | 181 | 2.6 | 3.5 | 0.00 | 0.00 | 0.00 | 58 | 1018.5 |
| 20260504015051 | 66 | 181 | 2.6 | 3.5 | 0.00 | 0.00 | 0.00 | 57 | 1017.3 |
| 20260504014824 | 67 | 181 | 2.6 | 3.5 | 0.00 | 0.00 | 0.00 | 57 | 1018.4 |
| 20260504014545 | 67 | 181 | 1.7 | 2.6 | 0.00 | 0.00 | 0.00 | 56 | 1017.3 |
| 20260504014322 | 67 | 181 | 1.7 | 2.6 | 0.00 | 0.00 | 0.00 | 56 | 1018.4 |
| 20260504014037 | 67 | 181 | 1.7 | 3.5 | 0.00 | 0.00 | 0.00 | 56 | 1017.2 |
| 20260504013818 | 68 | 181 | 1.7 | 3.5 | 0.00 | 0.00 | 0.00 | 56 | 1018.3 |
| 20260504013534 | 67 | 181 | 1.7 | 3.5 | 0.00 | 0.00 | 0.00 | 55 | 1017.1 |
| 20260504013314 | 68 | 181 | 2.6 | 3.5 | 0.00 | 0.00 | 0.00 | 55 | 1018.1 |
| 20260504013036 | 68 | 181 | 1.7 | 3.5 | 0.00 | 0.00 | 0.00 | 54 | 1016.9 |
| 20260504012831 | 68 | 181 | 2.6 | 3.5 | 0.00 | 0.00 | 0.00 | 54 | 1018.0 |
| 20260504012508 | 68 | 181 | 1.7 | 3.5 | 0.00 | 0.00 | 0.00 | 54 | 1016.9 |
| 20260504012328 | 69 | 181 | 2.6 | 3.5 | 0.00 | 0.00 | 0.00 | 54 | 1018.1 |
| 20260504012105 | 68 | 181 | 1.7 | 3.5 | 0.00 | 0.00 | 0.00 | 54 | 1016.9 |
| 20260504011823 | 69 | 181 | 2.6 | 3.5 | 0.00 | 0.00 | 0.00 | 53 | 1018.0 |
| 20260504011554 | 69 | 181 | 1.7 | 3.5 | 0.00 | 0.00 | 0.00 | 53 | 1016.8 |
| 20260504011320 | 69 | 181 | 2.6 | 4.3 | 0.00 | 0.00 | 0.00 | 53 | 1018.0 |
| 20260504011047 | 69 | 181 | 2.6 | 4.3 | 0.00 | 0.00 | 0.00 | 53 | 1016.8 |
| 20260504010817 | 70 | 164 | 2.6 | 4.3 | 0.00 | 0.00 | 0.00 | 53 | 1017.9 |
| 20260504010540 | 69 | 170 | 2.6 | 5.2 | 0.00 | 0.00 | 0.00 | 52 | 1016.6 |
| 20260504010332 | 70 | 156 | 3.5 | 5.2 | 0.00 | 0.00 | 0.00 | 52 | 1017.8 |
| 20260504010032 | 70 | 152 | 3.5 | 5.2 | 0.00 | 0.00 | 0.00 | 52 | 1016.7 |
| 20260504005828 | 70 | 173 | 3.5 | 4.3 | 0.00 | 0.00 | 0.00 | 52 | 1017.9 |
| 20260504005528 | 70 | 173 | 1.7 | 3.5 | 0.00 | 0.00 | 0.00 | 52 | 1016.8 |
| 20260504005325 | 71 | 174 | 2.6 | 3.5 | 0.00 | 0.00 | 0.00 | 51 | 1018.0 |
| 20260504005022 | 71 | 168 | 1.7 | 4.3 | 0.00 | 0.00 | 0.00 | 51 | 1016.8 |
| 20260504004821 | 71 | 168 | 2.6 | 4.3 | 0.00 | 0.00 | 0.00 | 51 | 1018.0 |
| 20260504004515 | 71 | 168 | 3.5 | 4.3 | 0.00 | 0.00 | 0.00 | 50 | 1016.8 |
| 20260504004315 | 72 | 164 | 2.6 | 4.3 | 0.00 | 0.00 | 0.00 | 50 | 1018.0 |
| 20260504004058 | 71 | 164 | 0.0 | 0.0 | 0.00 | 0.00 | 0.00 | 50 | 1016.8 |
| 20260504003827 | 72 | 164 | 0.0 | 0.0 | 0.00 | 0.00 | 0.00 | 49 | 1018.0 |
| 20260504003531 | 72 | 186 | 0.0 | 0.0 | 0.00 | 0.00 | 0.00 | 49 | 1017.0 |
| 20260504003324 | 72 | 173 | 0.0 | 0.0 | 0.00 | 0.00 | 0.00 | 49 | 1018.1 |
| 20260504003038 | 72 | 193 | 0.0 | 0.0 | 0.00 | 0.00 | 0.00 | 48 | 1017.0 |
| 20260504002821 | 73 | 174 | 0.0 | 0.0 | 0.00 | 0.00 | 0.00 | 48 | 1018.2 |
| 20260504002522 | 72 | 156 | 0.0 | 0.0 | 0.00 | 0.00 | 0.00 | 48 | 1016.9 |
| 20260504002339 | 73 | 180 | 0.0 | 0.0 | 0.00 | 0.00 | 0.00 | 49 | 1018.1 |
| 20260504002101 | 73 | 166 | 0.0 | 0.0 | 0.00 | 0.00 | 0.00 | 48 | 1017.0 |
| 20260504001830 | 73 | 210 | 0.0 | 0.0 | 0.00 | 0.00 | 0.00 | 48 | 1018.1 |
| 20260504001552 | 73 | 176 | 0.0 | 0.0 | 0.00 | 0.00 | 0.00 | 48 | 1016.9 |
| 20260504001327 | 73 | 164 | 0.0 | 0.0 | 0.00 | 0.00 | 0.00 | 48 | 1018.0 |
| 20260504001047 | 73 | 164 | 0.0 | 0.0 | 0.00 | 0.00 | 0.00 | 46 | 1016.9 |
| 20260504000824 | 74 | 172 | 0.0 | 0.0 | 0.00 | 0.00 | 0.00 | 46 | 1018.2 |
| 20260504000540 | 73 | 204 | 0.0 | 0.0 | 0.00 | 0.00 | 0.00 | 45 | 1017.1 |
| 20260504000320 | 74 | 194 | 0.0 | 0.0 | 0.00 | 0.00 | 0.00 | 44 | 1018.2 |
| 20260504000038 | 73 | 189 | 0.0 | 0.0 | 0.00 | 0.00 | 0.00 | 45 | 1017.2 |
| 20260503235816 | 74 | 172 | 0.0 | 0.0 | 0.00 | 0.00 | 0.00 | 45 | 1018.2 |
| 20260503235518 | 73 | 187 | 0.0 | 0.0 | 0.00 | 0.00 | 0.00 | 44 | 1017.2 |
| 20260503235351 | 74 | 171 | 0.0 | 0.0 | 0.00 | 0.00 | 0.00 | 44 | 1018.3 |
| 20260503235050 | 73 | 183 | 0.0 | 0.0 | 0.00 | 0.00 | 0.00 | 44 | 1017.3 |
| 20260503234847 | 74 | 192 | 0.0 | 0.0 | 0.00 | 0.00 | 0.00 | 44 | 1018.4 |
| 20260503234527 | 74 | 179 | 0.0 | 0.0 | 0.00 | 0.00 | 0.00 | 43 | 1017.3 |
| 20260503234323 | 74 | 195 | 0.0 | 0.0 | 0.00 | 0.00 | 0.00 | 43 | 1018.5 |
| 20260503234004 | 74 | 212 | 0.0 | 0.0 | 0.00 | 0.00 | 0.00 | 43 | 1017.4 |
| 20260503233819 | 74 | 187 | 0.0 | 0.0 | 0.00 | 0.00 | 0.00 | 43 | 1018.6 |
| 20260503233558 | 74 | 186 | 0.0 | 0.0 | 0.00 | 0.00 | 0.00 | 42 | 1017.4 |
| 20260503233315 | 74 | 169 | 0.0 | 0.0 | 0.00 | 0.00 | 0.00 | 42 | 1018.6 |
| 20260503233052 | 74 | 162 | 0.0 | 0.0 | 0.00 | 0.00 | 0.00 | 41 | 1017.5 |
| 20260503232832 | 74 | 182 | 0.0 | 0.0 | 0.00 | 0.00 | 0.00 | 41 | 1018.6 |
| 20260503232549 | 74 | 166 | 0.0 | 0.0 | 0.00 | 0.00 | 0.00 | 40 | 1017.4 |
| 20260503232330 | 75 | 154 | 0.0 | 0.0 | 0.00 | 0.00 | 0.00 | 40 | 1018.6 |
| 20260503232038 | 74 | 179 | 0.0 | 0.0 | 0.00 | 0.00 | 0.00 | 39 | 1017.4 |
| 20260503231824 | 75 | 190 | 0.0 | 0.0 | 0.00 | 0.00 | 0.00 | 38 | 1018.7 |
| 20260503231530 | 74 | 177 | 0.0 | 0.0 | 0.00 | 0.00 | 0.00 | 38 | 1017.5 |
| 20260503231322 | 75 | 181 | 0.0 | 0.0 | 0.00 | 0.00 | 0.00 | 38 | 1018.6 |
| 20260503231026 | 75 | 172 | 0.0 | 0.0 | 0.00 | 0.00 | 0.00 | 38 | 1017.6 |
| 20260503230817 | 75 | 201 | 0.0 | 0.0 | 0.00 | 0.00 | 0.00 | 38 | 1018.7 |
| 20260503230518 | 75 | 154 | 0.0 | 0.0 | 0.00 | 0.00 | 0.00 | 37 | 1017.5 |
| 20260503230333 | 76 | 149 | 0.0 | 0.0 | 0.00 | 0.00 | 0.00 | 37 | 1018.7 |
| 20260503230106 | 75 | 166 | 0.0 | 0.0 | 0.00 | 0.00 | 0.00 | 37 | 1017.5 |
| 20260503225825 | 76 | 181 | 0.0 | 0.0 | 0.00 | 0.00 | 0.00 | 36 | 1018.7 |
| 20260503225555 | 76 | 198 | 0.0 | 0.0 | 0.00 | 0.00 | 0.00 | 36 | 1017.5 |
| 20260503225323 | 76 | 174 | 0.0 | 0.0 | 0.00 | 0.00 | 0.00 | 38 | 1018.7 |
| 20260503225046 | 76 | 204 | 0.0 | 0.0 | 0.00 | 0.00 | 0.00 | 37 | 1017.4 |
| 20260503224840 | 76 | 158 | 0.0 | 0.0 | 0.00 | 0.00 | 0.00 | 38 | 1018.6 |
| 20260503224525 | 76 | 170 | 0.0 | 0.0 | 0.00 | 0.00 | 0.00 | 37 | 1017.4 |
| 20260503224314 | 76 | 129 | 0.0 | 0.0 | 0.00 | 0.00 | 0.00 | 37 | 1018.6 |
| 20260503224058 | 76 | 168 | 0.0 | 0.0 | 0.00 | 0.00 | 0.00 | 37 | 1017.6 |
| 20260503223831 | 76 | 183 | 0.0 | 0.0 | 0.00 | 0.00 | 0.00 | 36 | 1018.7 |
| 20260503223552 | 76 | 143 | 0.0 | 0.0 | 0.00 | 0.00 | 0.00 | 36 | 1017.6 |
| 20260503223325 | 76 | 151 | 0.0 | 0.0 | 0.00 | 0.00 | 0.00 | 36 | 1018.7 |
| 20260503223020 | 76 | 154 | 0.0 | 0.0 | 0.00 | 0.00 | 0.00 | 36 | 1017.6 |
| 20260503222820 | 76 | 187 | 0.0 | 0.0 | 0.00 | 0.00 | 0.00 | 36 | 1018.8 |
| 20260503222514 | 76 | 169 | 0.0 | 0.0 | 0.00 | 0.00 | 0.00 | 37 | 1017.7 |
| 20260503222316 | 76 | 160 | 0.0 | 0.0 | 0.00 | 0.00 | 0.00 | 36 | 1019.0 |
| 20260503222057 | 76 | 168 | 0.0 | 0.0 | 0.00 | 0.00 | 0.00 | 36 | 1017.8 |
| 20260503221831 | 76 | 166 | 0.0 | 0.0 | 0.00 | 0.00 | 0.00 | 36 | 1019.0 |
| 20260503221554 | 76 | 158 | 0.0 | 0.0 | 0.00 | 0.00 | 0.00 | 38 | 1017.8 |
| 20260503221327 | 76 | 181 | 0.0 | 0.0 | 0.00 | 0.00 | 0.00 | 37 | 1018.9 |
| 20260503221046 | 76 | 197 | 0.0 | 0.0 | 0.00 | 0.00 | 0.00 | 36 | 1017.7 |
| 20260503220842 | 76 | 188 | 0.0 | 0.0 | 0.00 | 0.00 | 0.00 | 37 | 1019.0 |
| 20260503220514 | 76 | 203 | 0.0 | 0.0 | 0.00 | 0.00 | 0.00 | 37 | 1018.0 |
| 20260503220316 | 76 | 170 | 0.0 | 0.0 | 0.00 | 0.00 | 0.00 | 38 | 1019.1 |
| 20260503220100 | 76 | 160 | 0.0 | 0.0 | 0.00 | 0.00 | 0.00 | 36 | 1018.0 |
| 20260503215828 | 76 | 162 | 0.0 | 0.0 | 0.00 | 0.00 | 0.00 | 37 | 1019.1 |
| 20260503215549 | 76 | 190 | 0.0 | 0.0 | 0.00 | 0.00 | 0.00 | 38 | 1018.0 |
| 20260503215324 | 76 | 213 | 0.0 | 0.0 | 0.00 | 0.00 | 0.00 | 36 | 1019.2 |
| 20260503215044 | 76 | 228 | 0.0 | 0.0 | 0.00 | 0.00 | 0.00 | 37 | 1018.1 |
| 20260503214819 | 76 | 195 | 0.0 | 8.7 | 0.00 | 0.00 | 0.00 | 37 | 1019.2 |
| 20260503214538 | 76 | 182 | 0.0 | 11.3 | 0.00 | 0.00 | 0.00 | 37 | 1018.2 |
| 20260503214315 | 76 | 195 | 0.0 | 11.3 | 0.00 | 0.00 | 0.00 | 37 | 1019.3 |
| 20260503214032 | 76 | 166 | 4.3 | 15.6 | 0.00 | 0.00 | 0.00 | 39 | 1018.2 |
| 20260503213832 | 76 | 206 | 8.7 | 15.6 | 0.00 | 0.00 | 0.00 | 37 | 1019.4 |
| 20260503213516 | 76 | 166 | 11.3 | 15.6 | 0.00 | 0.00 | 0.00 | 37 | 1018.5 |
| 20260503213328 | 76 | 171 | 12.2 | 15.6 | 0.00 | 0.00 | 0.00 | 38 | 1019.5 |
| 20260503213011 | 75 | 138 | 7.8 | 13.9 | 0.00 | 0.00 | 0.00 | 38 | 1018.5 |
| 20260503212824 | 76 | 154 | 10.4 | 13.9 | 0.00 | 0.00 | 0.00 | 36 | 1019.6 |
| 20260503212502 | 76 | 164 | 7.0 | 10.4 | 0.00 | 0.00 | 0.00 | 37 | 1018.7 |
| 20260503212319 | 76 | 202 | 7.0 | 10.4 | 0.00 | 0.00 | 0.00 | 38 | 1019.9 |
| 20260503212056 | 76 | 170 | 5.2 | 13.0 | 0.00 | 0.00 | 0.00 | 36 | 1018.8 |
| 20260503211815 | 76 | 187 | 6.1 | 13.0 | 0.00 | 0.00 | 0.00 | 38 | 1020.1 |
| 20260503211548 | 75 | 179 | 7.0 | 14.8 | 0.00 | 0.00 | 0.00 | 37 | 1019.0 |
| 20260503211332 | 76 | 151 | 9.6 | 14.8 | 0.00 | 0.00 | 0.00 | 36 | 1020.1 |
| 20260503211039 | 76 | 156 | 5.2 | 14.8 | 0.00 | 0.00 | 0.00 | 37 | 1019.0 |
| 20260503210848 | 76 | 156 | 9.6 | 14.8 | 0.00 | 0.00 | 0.00 | 36 | 1020.2 |
| 20260503210505 | 76 | 201 | 10.4 | 17.4 | 0.00 | 0.00 | 0.00 | 38 | 1019.1 |
| 20260503210323 | 76 | 164 | 8.7 | 17.4 | 0.00 | 0.00 | 0.00 | 37 | 1020.2 |
| 20260503205838 | 76 | 145 | 8.7 | 13.9 | 0.00 | 0.00 | 0.00 | 38 | 1020.4 |
| 20260503205534 | 76 | 162 | 7.0 | 14.8 | 0.00 | 0.00 | 0.00 | 38 | 1019.3 |
| 20260503205333 | 76 | 129 | 7.0 | 15.6 | 0.00 | 0.00 | 0.00 | 37 | 1020.3 |
| 20260503205018 | 75 | 168 | 9.6 | 14.8 | 0.00 | 0.00 | 0.00 | 37 | 1019.3 |
| 20260503204830 | 76 | 145 | 11.3 | 14.8 | 0.00 | 0.00 | 0.00 | 38 | 1020.4 |
| 20260503204512 | 75 | 138 | 8.7 | 14.8 | 0.00 | 0.00 | 0.00 | 37 | 1019.5 |
| 20260503204325 | 76 | 193 | 9.6 | 13.9 | 0.00 | 0.00 | 0.00 | 37 | 1020.4 |
| 20260503204005 | 76 | 198 | 5.2 | 16.5 | 0.00 | 0.00 | 0.00 | 36 | 1019.6 |
| 20260503203842 | 76 | 180 | 7.8 | 16.5 | 0.00 | 0.00 | 0.00 | 36 | 1020.7 |
| 20260503203538 | 76 | 162 | 9.6 | 17.4 | 0.00 | 0.00 | 0.00 | 36 | 1019.7 |
| 20260503203315 | 76 | 151 | 12.2 | 17.4 | 0.00 | 0.00 | 0.00 | 37 | 1020.8 |
| 20260503203035 | 76 | 156 | 9.6 | 17.4 | 0.00 | 0.00 | 0.00 | 37 | 1019.6 |
| 20260503202830 | 76 | 191 | 9.6 | 18.2 | 0.00 | 0.00 | 0.00 | 36 | 1020.7 |
| 20260503202516 | 76 | 184 | 7.8 | 12.2 | 0.00 | 0.00 | 0.00 | 38 | 1019.6 |
| 20260503202326 | 76 | 206 | 8.7 | 11.3 | 0.00 | 0.00 | 0.00 | 38 | 1020.7 |
| 20260503202051 | 75 | 193 | 7.0 | 16.5 | 0.00 | 0.00 | 0.00 | 38 | 1019.6 |
| 20260503201823 | 76 | 191 | 7.0 | 16.5 | 0.00 | 0.00 | 0.00 | 37 | 1020.6 |
| 20260503201542 | 75 | 152 | 11.3 | 16.5 | 0.00 | 0.00 | 0.00 | 36 | 1019.7 |
| 20260503201318 | 76 | 143 | 10.4 | 16.5 | 0.00 | 0.00 | 0.00 | 36 | 1020.8 |
| 20260503201036 | 76 | 173 | 7.8 | 13.0 | 0.00 | 0.00 | 0.00 | 38 | 1019.8 |
| 20260503200815 | 76 | 154 | 8.7 | 13.0 | 0.00 | 0.00 | 0.00 | 37 | 1020.9 |
| 20260503200519 | 76 | 175 | 9.6 | 14.8 | 0.00 | 0.00 | 0.00 | 38 | 1020.0 |
| 20260503200333 | 76 | 123 | 11.3 | 14.8 | 0.00 | 0.00 | 0.00 | 37 | 1021.0 |
| 20260503200012 | 75 | 152 | 2.6 | 11.3 | 0.00 | 0.00 | 0.00 | 38 | 1020.0 |
| 20260503195847 | 76 | 131 | 2.6 | 11.3 | 0.00 | 0.00 | 0.00 | 39 | 1021.1 |
| 20260503195541 | 75 | 162 | 3.5 | 11.3 | 0.00 | 0.00 | 0.00 | 37 | 1020.3 |
| 20260503195320 | 76 | 172 | 7.0 | 11.3 | 0.00 | 0.00 | 0.00 | 37 | 1021.4 |
| 20260503195001 | 76 | 198 | 7.8 | 10.4 | 0.00 | 0.00 | 0.00 | 37 | 1020.5 |
| 20260503194817 | 76 | 172 | 7.0 | 9.6 | 0.00 | 0.00 | 0.00 | 39 | 1021.5 |
| 20260503194601 | 76 | 179 | 4.3 | 10.4 | 0.00 | 0.00 | 0.00 | 40 | 1020.6 |
| 20260503194314 | 76 | 214 | 7.8 | 10.4 | 0.00 | 0.00 | 0.00 | 38 | 1021.6 |
| 20260503194049 | 75 | 237 | 6.1 | 10.4 | 0.00 | 0.00 | 0.00 | 39 | 1020.6 |
| 20260503193829 | 76 | 217 | 7.8 | 10.4 | 0.00 | 0.00 | 0.00 | 39 | 1021.6 |
| 20260503193540 | 75 | 138 | 3.5 | 11.3 | 0.00 | 0.00 | 0.00 | 39 | 1020.5 |
| 20260503193326 | 76 | 192 | 7.0 | 13.0 | 0.00 | 0.00 | 0.00 | 38 | 1021.6 |
| 20260503193037 | 75 | 206 | 6.1 | 13.0 | 0.00 | 0.00 | 0.00 | 40 | 1020.7 |
| 20260503192822 | 76 | 194 | 7.0 | 13.0 | 0.00 | 0.00 | 0.00 | 39 | 1021.8 |
| 20260503192517 | 75 | 202 | 9.6 | 13.0 | 0.00 | 0.00 | 0.00 | 40 | 1020.9 |
| 20260503192333 | 75 | 149 | 7.8 | 13.0 | 0.00 | 0.00 | 0.00 | 40 | 1021.8 |
| 20260503192049 | 75 | 171 | 8.7 | 13.0 | 0.00 | 0.00 | 0.00 | 38 | 1020.8 |
| 20260503191849 | 76 | 143 | 8.7 | 13.0 | 0.00 | 0.00 | 0.00 | 39 | 1021.8 |
| 20260503191512 | 75 | 184 | 4.3 | 13.0 | 0.00 | 0.00 | 0.00 | 39 | 1020.8 |
| 20260503191323 | 75 | 157 | 4.3 | 13.0 | 0.00 | 0.00 | 0.00 | 39 | 1021.7 |
| 20260503191008 | 75 | 185 | 6.1 | 13.0 | 0.00 | 0.00 | 0.00 | 40 | 1020.8 |
| 20260503190820 | 75 | 219 | 6.1 | 12.2 | 0.00 | 0.00 | 0.00 | 43 | 1021.9 |
| 20260503190559 | 74 | 149 | 7.8 | 13.9 | 0.00 | 0.00 | 0.00 | 41 | 1021.0 |
| 20260503190316 | 75 | 187 | 9.6 | 14.8 | 0.00 | 0.00 | 0.00 | 41 | 1022.0 |
| 20260503190052 | 74 | 131 | 7.8 | 14.8 | 0.00 | 0.00 | 0.00 | 40 | 1021.0 |
| 20260503185831 | 75 | 123 | 3.5 | 14.8 | 0.00 | 0.00 | 0.00 | 39 | 1022.1 |
| 20260503185543 | 74 | 149 | 10.4 | 14.8 | 0.00 | 0.00 | 0.00 | 38 | 1021.2 |
| 20260503185328 | 75 | 122 | 7.8 | 13.9 | 0.00 | 0.00 | 0.00 | 39 | 1022.1 |
| 20260503185033 | 75 | 182 | 7.0 | 10.4 | 0.00 | 0.00 | 0.00 | 42 | 1021.1 |
| 20260503184824 | 75 | 85 | 5.2 | 10.4 | 0.00 | 0.00 | 0.00 | 41 | 1022.1 |
| 20260503184524 | 74 | 145 | 4.3 | 13.0 | 0.00 | 0.00 | 0.00 | 40 | 1021.2 |
| 20260503184319 | 74 | 197 | 7.0 | 13.0 | 0.00 | 0.00 | 0.00 | 39 | 1022.3 |
| 20260503184007 | 74 | 199 | 7.8 | 13.0 | 0.00 | 0.00 | 0.00 | 40 | 1021.5 |